www.pogodaiklimat.ru

Погода и климат >> Архив погоды >> Испания >> Аликанте


ПОГОДА в Аликанте

  • Прогноз погоды в Аликанте
  • Монитор погоды в Аликанте

АРХИВ ПОГОДЫ в Аликанте

Время (UTC), дата Ветер
(напр.,м/с)
 
Видим.   Явления Облачность Т
(С)
Тd
(С)
f
(%)
Тe
(С)
Тes
(С)
Комфортность P
(гПа)
Po
(гПа)
Тmin
(С)
Tmax
(С)
R
(мм)
R24
(мм)
S
(см)
16 13.09 СВ 5 17 км н/о +22.5 +18.3 77 +28 +28 душно 1021.1 1011.6
17 13.09 СВ 5 19 км н/о +22.5 +17.2 72 +27 +27 душно 1021.5 1011.9
18 13.09 В 3 17 км дымка н/о +21.4 +17.8 80 +26 +26 душно 1021.8 1012.2 +24.9
19 13.09 С 2 18 км н/о +20.5 +17.5 83 +25 +25 комфорт 1022.8 1013.2
20 13.09 С 1 20 км н/о +19.9 +16.7 82 +24 +24 комфорт 1022.9 1013.2
21 13.09 СВ 2 20 км н/о +19.3 +15.2 77 +22 +22 комфорт 1022.7 1013.0
22 13.09 С 2 20 км н/о +19.5 +14.7 74 +22 +22 комфорт 1022.6 1012.9
23 13.09 СВ 3 20 км н/о +20.4 +15.2 72 +24 +24 комфорт 1021.4 1011.8
00 14.09 З 3 20 км н/о +20.7 +16.1 75 +24 +24 комфорт 1022.5 1012.9
01 14.09 СЗ 2 20 км н/о +20.8 +16.0 74 +25 +25 комфорт 1022.3 1012.7
02 14.09 С 4 20 км н/о +21.6 +16.5 73 +25 +25 комфорт 1021.6 1012.0
03 14.09 С 3 20 км н/о +21.7 +16.6 73 +26 +26 душно 1021.3 1011.7
04 14.09 СЗ 3 8000 м слаб. дождь н/о +18.8 +17.3 91 +20 +20 1022.4 1012.7 8
05 14.09 В 4 19 км в посл. час морось н/о +19.2 +17.5 90 +21 +21 комфорт 1021.3 1011.6 0.0
06 14.09 З 1 19 км в посл. час дождь {ливн. осадки} н/о +19.0 +17.5 91 +22 +22 комфорт 1020.3 1010.6 +18.7 8
07 14.09 СВ 2 20 км в посл. час дождь н/о +19.5 +18.0 91 +23 +23 комфорт 1020.2 1010.6 2
08 14.09 З 1 20 км н/о +21.3 +18.5 84 +26 +26 душно 1020.5 1010.9
09 14.09 З 1 20 км н/о +24.2 +18.6 71 +29 +29 душно 1020.8 1011.3 2
10 14.09 С 1 20 км н/о +24.8 +18.3 67 +29 +29 душно 1020.9 1011.4
11 14.09 В 4 19 км н/о +24.0 +18.0 69 +28 +28 душно 1021.2 1011.7
12 14.09 СВ 4 17 км дымка н/о +24.2 +18.6 71 +29 +29 душно 1020.5 1011.0
13 14.09 СВ 2 19 км н/о +25.0 +18.9 69 +30 +30 душно 1019.9 1010.4
14 14.09 СВ 2 19 км н/о +25.4 +19.8 71 +31 +31 очень
душно
1018.9 1009.5
15 14.09 В 3 19 км н/о +25.2 +19.6 71 +31 +31 очень
душно
1018.8 1009.4
16 14.09 СВ 3 20 км н/о +26.6 +20.0 67 +33 +33 очень
душно
1018.0 1008.6
17 14.09 В 2 18 км н/о +26.2 +19.8 68 +32 +32 очень
душно
1017.1 1007.7
18 14.09 С 2 20 км дымка н/о +25.0 +19.1 70 +30 +30 душно 1017.4 1008.0 +26.8
19 14.09 СЗ 1 20 км н/о +23.8 +19.3 76 +29 +29 душно 1019.3 1009.8 0.0
20 14.09 СВ 4 14 км н/о +23.9 +19.4 76 +29 +29 душно 1019.6 1010.1
21 14.09 С 1 18 км н/о +22.8 +19.4 81 +29 +29 очень
душно
1019.1 1009.6 0.0
22 14.09 СЗ 1 16 км н/о +21.8 +19.4 86 +27 +27 душно 1019.7 1010.1
23 14.09 С 2 19 км н/о +21.5 +18.1 81 +26 +26 душно 1019.5 1009.9
00 15.09 СВ 1 16 км дымка н/о +21.3 +18.3 83 +26 +26 душно 1019.6 1010.0
01 15.09 С 2 16 км н/о +20.8 +18.2 85 +26 +26 душно 1018.2 1008.6
02 15.09 СВ 2 16 км н/о +20.7 +17.9 84 +25 +25 комфорт 1017.2 1007.6
03 15.09 Ю 1 16 км н/о +20.5 +18.1 86 +26 +26 душно 1017.5 1007.9
04 15.09 З 1 14 км н/о +19.9 +17.9 88 +24 +24 комфорт 1017.3 1007.7
05 15.09 ЮЗ 1 14 км н/о +19.7 +17.8 89 +24 +24 комфорт 1017.4 1007.8
06 15.09 В 1 16 км дымка н/о +19.6 +18.1 91 +24 +24 комфорт 1017.5 1007.9 +19.5
07 15.09 С 1 13 км н/о +20.8 +18.9 89 +26 +26 душно 1017.3 1007.7
08 15.09 В 3 12 км н/о +24.4 +20.3 78 +30 +30 очень
душно
1017.1 1007.7
09 15.09 В 4 13 км н/о +26.2 +21.0 73 +33 +33 очень
душно
1017.7 1008.3
10 15.09 В 3 14 км н/о +27.7 +20.3 64 +34 +34 очень
душно
1018.0 1008.7
11 15.09 В 4 14 км н/о +28.5 +20.2 61 +35 +35 очень
душно
1018.1 1008.8
12 15.09 В 5 14 км н/о +28.2 +20.7 64 +35 +35 очень
душно
1017.9 1008.6
13 15.09 В 6 14 км н/о +27.9 +20.2 63 +34 +34 очень
душно
1017.3 1008.0
14 15.09 В 5 14 км н/о +27.8 +20.6 65 +35 +35 очень
душно
1017.1 1007.8
15 15.09 В 5 15 км н/о +27.7 +20.8 66 +35 +35 очень
душно
1016.6 1007.3
16 15.09 СВ 4 14 км н/о +27.8 +20.4 64 +34 +34 очень
душно
1016.4 1007.1
17 15.09 В 3 13 км н/о +27.1 +20.0 65 +33 +33 очень
душно
1016.6 1007.2
18 15.09 В 2 13 км н/о +25.8 +20.1 71 +32 +32 очень
душно
1016.5 1007.1 +28.6
19 15.09 В 1 14 км н/о +25.0 +20.0 74 +31 +31 очень
душно
1016.9 1007.5
20 15.09 В 2 9000 м н/о +24.2 +21.3 84 +31 +31 очень
душно
1017.9 1008.5
21 15.09 ЮВ 1 8000 м н/о +23.7 +21.0 85 +30 +30 очень
душно
1018.2 1008.7
22 15.09 З 1 7000 м н/о +23.0 +20.9 88 +30 +30 очень
душно
1017.9 1008.4
23 15.09 З 1 6000 м н/о +22.4 +20.9 91 +29 +29 очень
душно
1017.9 1008.4
00 16.09 ЮЗ 2 6000 м н/о +22.2 +21.0 93 +29 +29 очень
душно
1017.7 1008.2
01 16.09 З 1 10 км н/о +21.6 +19.7 89 +27 +27 душно 1017.4 1007.9
02 16.09 СЗ 1 11 км н/о +20.9 +19.0 89 +26 +26 душно 1017.1 1007.5
03 16.09 СЗ 1 10 км н/о +20.4 +18.5 89 +26 +26 душно 1016.8 1007.2
04 16.09 С 1 9000 м н/о +20.0 +18.5 91 +24 +24 комфорт 1017.1 1007.5
05 16.09 СВ 1 9000 м н/о +19.6 +18.3 92 +23 +23 комфорт 1017.1 1007.5
06 16.09 СЗ 1 10 км ясно +19.7 +18.2 91 +24 +24 комфорт 1017.9 1008.3 +19.6
07 16.09 З 1 9000 м н/о +20.8 +18.7 88 +26 +26 душно 1018.4 1008.8
08 16.09 З 1 12 км н/о +23.8 +19.1 75 +29 +29 душно 1018.7 1009.2
09 16.09 Ю 2 12 км 1/1 600 м
[Cu hum]
+26.5 +20.1 68 +33 +39 очень
душно
1018.8 1009.4
10 16.09 Ю 3 12 км н/о +27.2 +20.8 68 +34 +34 очень
душно
1018.7 1009.3
11 16.09 ЮВ 3 13 км н/о +27.5 +20.6 66 +34 +34 очень
душно
1018.7 1009.3
12 16.09 ЮВ 3 14 км 4/4 1500 м
[Cb calv]
+28.0 +20.8 65 +35 +42 очень
душно
1018.3 1009.0
13 16.09 ЮВ 3 14 км н/о +27.8 +21.1 67 +35 +35 очень
душно
1018.1 1008.8 0.0
14 16.09 ЮВ 3 14 км н/о +27.8 +20.6 65 +35 +35 очень
душно
1017.5 1008.2
15 16.09 ЮВ 3 14 км н/о +27.9 +21.0 66 +35 +35 очень
душно
1017.0 1007.7 0.0
16 16.09 ЮВ 3 16 км н/о +27.2 +20.3 66 +34 +34 очень
душно
1016.9 1007.6
17 16.09 Ю 3 15 км н/о +26.5 +20.6 70 +33 +33 очень
душно
1016.9 1007.5
18 16.09 Ю 1 13 км дымка н/о +25.0 +20.7 77 +31 +31 очень
душно
1017.0 1007.6 +28.2 0.0
19 16.09 ЮВ 1 12 км н/о +24.2 +20.7 81 +30 +30 очень
душно
1017.3 1007.9
20 16.09 ЮЗ 1 11 км н/о +23.6 +20.5 83 +29 +29 душно 1017.9 1008.4
21 16.09 З 1 8000 м н/о +23.2 +20.9 87 +31 +31 очень
душно
1017.9 1008.4
22 16.09 ЮЗ 1 8000 м н/о +22.8 +20.7 88 +30 +30 очень
душно
1018.0 1008.5
23 16.09 ЮЗ 1 6000 м н/о +22.6 +21.1 91 +30 +30 очень
душно
1018.1 1008.6
00 17.09 З 1 7000 м н/о +22.2 +20.7 91 +29 +29 очень
душно
1017.7 1008.2
01 17.09 штиль 0 7000 м н/о +21.6 +19.9 90 +27 +27 душно 1017.4 1007.9
02 17.09 СЗ 1 8000 м н/о +21.8 +20.3 91 +28 +28 душно 1017.1 1007.6
03 17.09 штиль 0 7000 м н/о +21.9 +20.2 90 +28 +28 душно 1017.0 1007.5
04 17.09 С 1 6000 м н/о +21.5 +20.0 91 +27 +27 душно 1016.9 1007.4
05 17.09 СЗ 1 6000 м н/о +20.8 +19.3 91 +26 +26 душно 1017.1 1007.5
06 17.09 З 1 6000 м дымка {туман} 4/0
[As op Cs]
+20.4 +19.1 92 +25 +25 комфорт 1017.3 1007.7 +20.4
07 17.09 Ю 1 7000 м н/о +21.0 +19.6 92 +27 +27 душно 1016.9 1007.4
08 17.09 ЮВ 2 9000 м н/о +22.9 +20.2 85 +30 +30 очень
душно
1016.7 1007.2
09 17.09 ЮЗ 1 10 км {туман} 6/0
[Ac As Cc]
+23.7 +20.2 81 +29 +35 душно 1018.0 1008.5
10 17.09 Ю 1 12 км н/о +26.1 +20.2 70 +32 +32 очень
душно
1017.7 1008.3
11 17.09 СВ 2 13 км н/о +28.0 +21.5 68 +36 +36 очень
душно
1016.5 1007.2
12 17.09 Ю 4 11 км 8/1 600 м
[Cu Sc As op Cs]
+26.5 +21.0 72 +33 +38 очень
душно
1017.8 1008.4
13 17.09 СВ 2 9000 м н/о +25.3 +21.4 79 +32 +32 очень
душно
1015.4 1006.0
14 17.09 ЮВ 2 8000 м н/о +24.4 +21.5 84 +31 +31 очень
душно
1015.3 1005.9
15 17.09 ЮВ 4 10 км н/о +26.1 +21.5 76 +33 +33 очень
душно
1015.5 1006.1
16 17.09 В 1 12 км н/о +25.9 +20.5 72 +32 +32 очень
душно
1015.1 1005.7
17 17.09 С 2 13 км н/о +25.5 +20.1 72 +31 +31 очень
душно
1014.2 1004.8
18 17.09 ЮЗ 2 12 км н/о +24.8 +20.3 76 +31 +31 очень
душно
1014.3 1004.9 +28.1
19 17.09 ЮЗ 2 10 км н/о +24.0 +20.3 80 +30 +30 очень
душно
1014.7 1005.3
20 17.09 ЮЗ 1 9000 м н/о +23.1 +20.4 85 +30 +30 очень
душно
1015.8 1006.3
21 17.09 С 1 8000 м н/о +22.6 +20.5 88 +29 +29 очень
душно
1015.9 1006.4
22 17.09 СВ 1 7000 м н/о +22.2 +20.3 89 +28 +28 душно 1015.6 1006.1
23 17.09 С 1 7000 м н/о +21.9 +20.0 89 +28 +28 душно 1015.0 1005.5
00 18.09 С 1 7000 м н/о +21.3 +19.6 90 +26 +26 душно 1014.8 1005.3
01 18.09 З 1 7000 м н/о +20.8 +19.1 90 +27 +27 душно 1014.3 1004.8
02 18.09 З 1 9000 м н/о +20.3 +18.4 89 +25 +25 комфорт 1014.1 1004.5
03 18.09 СЗ 1 7000 м н/о +20.0 +18.7 92 +25 +25 комфорт 1013.7 1004.1
04 18.09 СЗ 2 10 км н/о +19.8 +18.1 90 +23 +23 комфорт 1013.8 1004.2
05 18.09 С 1 8000 м н/о +19.4 +17.9 91 +23 +23 комфорт 1013.8 1004.2
06 18.09 С 1 10 км ясно +19.2 +17.9 92 +23 +23 комфорт 1014.1 1004.5 +19.2
07 18.09 штиль 0 13 км н/о +20.8 +18.6 87 +25 +25 комфорт 1014.9 1005.4
08 18.09 С 2 16 км н/о +23.8 +19.1 75 +29 +29 душно 1015.3 1005.9
09 18.09 В 2 12 км 4/4 600 м
[Cu Sc]
+25.9 +20.7 73 +32 +37 очень
душно
1015.9 1006.5
10 18.09 СВ 2 13 км н/о +26.5 +20.6 70 +33 +33 очень
душно
1016.0 1006.6
12 18.09 0 15 км 1/1 600 м
[Cu hum Ci fib]
+27.2 +21.2 70 1015.6 1006.3
16 18.09 ЮВ 2 15 км н/о +27.2 +20.5 67 +34 +34 очень
душно
1014.2 1004.9
22 18.09 З 1 7000 м н/о +22.6 +20.1 86 +29 +29 очень
душно
1016.1 1006.6
23 18.09 СЗ 1 8000 м н/о +22.0 +19.4 85 +27 +27 душно 1016.2 1006.7
00 19.09 Ю 1 7000 м н/о +21.2 +18.9 87 +26 +26 душно 1016.2 1006.7
01 19.09 СЗ 1 10 км н/о +20.5 +18.3 87 +25 +25 комфорт 1016.4 1006.8
02 19.09 З 1 12 км н/о +19.9 +17.7 87 +24 +24 комфорт 1016.2 1006.6
03 19.09 СЗ 1 12 км н/о +19.4 +17.4 88 +23 +23 комфорт 1015.7 1006.1
04 19.09 СЗ 1 11 км н/о +19.2 +17.2 88 +22 +22 комфорт 1015.6 1006.0
05 19.09 СЗ 1 8000 м н/о +18.8 +17.3 91 +21 +21 комфорт 1015.5 1005.9
06 19.09 З 1 18 км ясно +18.7 +17.2 91 +21 +21 комфорт 1015.6 1006.0 +18.7
07 19.09 СЗ 1 14 км н/о +20.0 +16.8 82 +24 +24 комфорт 1016.3 1006.7
08 19.09 В 1 18 км н/о +23.6 +17.8 70 +28 +28 душно 1017.1 1007.6
09 19.09 ЮВ 2 18 км 1/1 600 м
[Cu hum]
+25.5 +20.1 72 +31 +38 очень
душно
1017.3 1007.9
10 19.09 ЮВ 3 17 км н/о +25.9 +20.0 70 +32 +32 очень
душно
1017.6 1008.2
11 19.09 В 3 17 км н/о +25.5 +20.1 72 +31 +31 очень
душно
1017.5 1008.1
12 19.09 ЮВ 2 18 км 4/4 600 м
[Cu med, cong]
+26.6 +20.0 67 +33 +41 очень
душно
1017.0 1007.6
13 19.09 ЮВ 3 19 км н/о +26.9 +19.5 64 +33 +33 очень
душно
1016.7 1007.3
14 19.09 ЮВ 3 19 км н/о +27.3 +19.6 63 +33 +33 очень
душно
1016.0 1006.7
15 19.09 ЮВ 3 18 км н/о +26.8 +19.4 64 +32 +32 очень
душно
1016.0 1006.6 0.0
16 19.09 ЮВ 2 17 км н/о +26.1 +19.5 67 +32 +32 очень
душно
1015.8 1006.4
17 19.09 В 2 17 км н/о +24.9 +19.5 72 +30 +30 душно 1015.9 1006.5
18 19.09 В 2 14 км дымка н/о +23.8 +19.7 78 +29 +29 душно 1016.4 1006.9 +27.3
19 19.09 СВ 2 11 км н/о +23.2 +20.2 83 +30 +30 очень
душно
1016.9 1007.4
20 19.09 В 2 13 км н/о +23.4 +20.3 83 +31 +31 очень
душно
1017.4 1007.9
21 19.09 В 2 14 км н/о +23.4 +20.1 82 +31 +31 очень
душно
1017.7 1008.2
22 19.09 В 2 14 км н/о +23.3 +20.2 83 +31 +31 очень
душно
1017.6 1008.1
23 19.09 СВ 3 13 км н/о +22.7 +19.9 84 +29 +29 очень
душно
1017.4 1007.9
00 20.09 СВ 1 13 км н/о +22.3 +19.7 85 +28 +28 душно 1017.4 1007.9
01 20.09 С 1 11 км н/о +21.7 +19.3 86 +27 +27 душно 1017.3 1007.8
02 20.09 С 2 11 км н/о +21.2 +18.9 87 +26 +26 душно 1017.1 1007.6
03 20.09 С 2 12 км н/о +20.8 +18.2 85 +26 +26 душно 1017.1 1007.5
04 20.09 З 1 12 км н/о +20.7 +18.5 87 +26 +26 душно 1017.4 1007.8

 

Местоположение метеостанции Аликанте (Испания): широта 38.37 долгота -0.50 высота над уровнем моря 81 м.

В архиве по умолчанию представлена погода в Аликанте за последнюю неделю. Архивные данные за месяц целиком и за предыдущие месяцы, начиная с января 2011 года, Вы можете получить, выбрав интересующий диапазон дат из раскрывающегося списка и нажав кнопку "Ввод!".


*Определитесь, кто Вы:
робот инопланетянин человек

Внимание! Время в таблицах - всемирное. Для получения местного времени необходимо прибавить поправку, которая равна 1 ч.

Смотрите также архив погоды в соседних городах и на ближайших метеорологических станциях:

Погода в Аликанте аэропорту (Испания) (11 км)
Погода в Пиносо (Испания) (47 км)
Погода в Екле (Испания) (63 км)
Погода в Хативе (Испания) (70 км)
Погода в Сан-Хавьере (Испания) (71 км)
Погода в Оливе (Испания) (71 км)
Погода в Мурсие (Испания) (72 км)
Погода в Хавеа - Аюнтамиенто (Испания) (74 км)
Погода в Сьеса - Парк де Бомберос (Испания) (78 км)
Погода в Мурсия аэропорту (Испания) (79 км)

Пояснения к столбцам:

Ветер - указаны скорость ветра в м/с - средняя за 10 мин, порывы в срок и между сроками (в фигурных скобках) и направление, откуда дует ветер: С - северный, СВ - северо-восточный, В - восточный, ЮВ - юго-восточный, Ю - южный, ЮЗ - юго-западный, З - западный, СЗ - северо-западный.
Видимость - горизонтальная дальность видимости в метрах или километрах. При видимости от 1 до 10 км при отсутствии осадков обычно наблюдается дымка, при ухудшении видимости до 1 км и менее - туман. В сухую погоду видимость может ухудшаться дымом, пылью или мглою.
Явления - указаны атмосферные явления, наблюдавшиеся в срок или в последний час перед сроком; фигурными скобками обозначены явления, наблюдавшиеся между сроками (за 1-3 часа до срока); квадратными скобками обозначены град или гололедные отложения с указанием их диаметра в мм.
Облачность - указаны через наклонную черту общая и нижняя облачность в баллах и высота нижней границы облаков в метрах; квадратными скобками обозначены формы облаков: Ci - перистые, Cs - перисто-слоистые, Cc - перисто-кучевые, Ac - высококучевые, As - высокослоистые, Sc - слоисто-кучевые, Ns - слоисто-дождевые, Cu - кучевые, Cb - кучево-дождевые. Подробнее классификацию облаков см. в Атласе облаков (PDF).
T - Температура воздуха - температура, измеренная на высоте 2 м над землей.
Td - Температура точки росы - температура, при понижении до которой содержащийся в воздухе водяной пар достигнет насыщения.
f - Относительная влажность воздуха - влажноcть воздуха, измеренная на высоте 2 м над землей.
Te - Эффективная температура - температура, которую ощущает одетый по сезону человек в тени. Характеристика душности погоды. При расчете учитывается влияние влажности воздуха и скорости ветра на теплоощущения человека.
Tes - Эффективная температура на солнце - температура, которую ощущает человек, с поправкой на солнечный нагрев. Характеристика знойности погоды. Зависит от высоты солнца над горизонтом, облачности и скорости ветра. Ночью, в пасмурную погоду, а также при ветре 12 м/с и более поправка равна нулю.
P - Атмосферное давление - приведенное к уровню моря атмосферное давление.
Po - Атмосферное давление - измеренное на уровне метеостанции атмосферное давление.
Tmin - Минимальная температура - минимум температуры воздуха на высоте 2 м над землей.
Tmax - Максимальная температура - максимум температуры воздуха на высоте 2 м над землей.
R - Количество осадков - Количество выпавших осадков за период времени, мм. При наведении курсора мыши на число - период времени, за который выпало указанное количество осадков.
R24 - Количество осадков - Количество выпавших осадков за 24 часа, мм.
S - Снежный покров - Высота снежного покрова, см. При наведении курсора мыши на число - состояние снежного покрова и степень покрытия местности в баллах.